Time,TemperatureF,DewpointF,PressureIn,WindDirection,WindDirectionDegrees,WindSpeedMPH,WindSpeedGustMPH,Humidity,HourlyPrecipIn,Conditions,Clouds,dailyrainin,SoftwareType,DateUTC
2013-04-05 00:00:00,35.2,8.3,30.08,North,0,0.0,0.0,32,0.00,CLR,OVC,0.00,WeatherDisplay:10.37,2013-04-05 05:00:00,
2013-04-05 00:05:00,35.1,7.4,30.08,North,0,0.0,0.0,31,0.00,CLR,OVC,0.00,WeatherDisplay:10.37,2013-04-05 05:05:00,
2013-04-05 00:10:00,34.9,6.5,30.09,North,0,0.0,0.0,30,0.00,CLR,OVC,0.00,WeatherDisplay:10.37,2013-04-05 05:10:00,
2013-04-05 00:15:00,35.1,5.2,30.08,North,0,0.0,0.0,28,0.00,CLR,OVC,0.00,WeatherDisplay:10.37,2013-04-05 05:15:00,
2013-04-05 00:20:00,35.2,5.3,30.08,North,0,0.0,0.0,28,0.00,CLR,OVC,0.00,WeatherDisplay:10.37,2013-04-05 05:20:00,
2013-04-05 00:25:00,35.2,5.3,30.08,North,0,0.0,0.0,28,0.00,CLR,OVC,0.00,WeatherDisplay:10.37,2013-04-05 05:25:00,
2013-04-05 00:30:00,35.2,6.1,30.08,North,0,0.0,0.0,29,0.00,CLR,OVC,0.00,WeatherDisplay:10.37,2013-04-05 05:30:00,
2013-04-05 00:35:00,35.2,5.3,30.08,North,0,0.0,0.0,28,0.00,CLR,OVC,0.00,WeatherDisplay:10.37,2013-04-05 05:35:00,
2013-04-05 00:40:00,35.1,4.4,30.09,North,0,0.0,0.0,27,0.00,CLR,OVC,0.00,WeatherDisplay:10.37,2013-04-05 05:40:00,
2013-04-05 00:45:00,34.9,3.4,30.08,North,0,0.0,0.0,26,0.00,CLR,OVC,0.00,WeatherDisplay:10.37,2013-04-05 05:45:00,
2013-04-05 00:50:00,34.7,2.4,30.09,North,0,0.0,0.0,25,0.00,CLR,OVC,0.00,WeatherDisplay:10.37,2013-04-05 05:50:00,
2013-04-05 00:55:00,34.5,1.4,30.09,North,0,0.0,0.0,24,0.00,CLR,OVC,0.00,WeatherDisplay:10.37,2013-04-05 05:55:00,
2013-04-05 01:00:00,34.3,2.1,30.09,North,0,0.0,0.0,25,0.00,CLR,OVC,0.00,WeatherDisplay:10.37,2013-04-05 06:00:00,
2013-04-05 01:05:00,34.2,1.9,30.09,North,0,0.0,0.0,25,0.00,CLR,OVC,0.00,WeatherDisplay:10.37,2013-04-05 06:05:00,
2013-04-05 01:10:00,33.8,-4.2,30.09,North,0,0.0,0.0,19,0.00,CLR,OVC,0.00,WeatherDisplay:10.37,2013-04-05 06:10:00,
2013-04-05 01:15:00,34.0,-7.6,30.09,North,0,0.0,0.0,16,0.00,CLR,OVC,0.00,WeatherDisplay:10.37,2013-04-05 06:15:00,
2013-04-05 01:20:00,34.0,-5.2,30.09,North,0,0.0,0.0,18,0.00,CLR,OVC,0.00,WeatherDisplay:10.37,2013-04-05 06:20:00,
2013-04-05 01:25:00,33.8,-1.1,30.09,North,0,0.0,0.0,22,0.00,CLR,OVC,0.00,WeatherDisplay:10.37,2013-04-05 06:25:00,
2013-04-05 01:30:00,33.6,-1.3,30.09,North,0,0.0,0.0,22,0.00,CLR,OVC,0.00,WeatherDisplay:10.37,2013-04-05 06:30:00,
2013-04-05 01:35:00,33.4,-1.4,30.10,North,0,0.0,0.0,22,0.00,CLR,OVC,0.00,WeatherDisplay:10.37,2013-04-05 06:35:00,
2013-04-05 01:40:00,33.3,-3.6,30.10,North,0,0.0,0.0,20,0.00,CLR,OVC,0.00,WeatherDisplay:10.37,2013-04-05 06:40:00,
2013-04-05 01:45:00,34.0,0.9,30.10,North,0,0.0,0.0,24,0.00,CLR,OVC,0.00,WeatherDisplay:10.37,2013-04-05 06:45:00,
2013-04-05 01:50:00,34.3,4.5,30.10,North,0,0.0,0.0,28,0.00,CLR,OVC,0.00,WeatherDisplay:10.37,2013-04-05 06:50:00,
2013-04-05 01:55:00,34.3,4.5,30.10,North,0,0.0,0.0,28,0.00,CLR,OVC,0.00,WeatherDisplay:10.37,2013-04-05 06:55:00,
2013-04-05 02:01:00,34.0,5.7,30.10,North,0,0.0,0.0,30,0.00,CLR,OVC,0.00,WeatherDisplay:10.37,2013-04-05 07:01:00,
2013-04-05 02:06:00,33.4,5.3,30.10,North,0,0.0,0.0,30,0.00,CLR,OVC,0.00,WeatherDisplay:10.37,2013-04-05 07:06:00,
2013-04-05 02:11:00,33.1,3.5,30.10,North,0,0.0,0.0,28,0.00,CLR,OVC,0.00,WeatherDisplay:10.37,2013-04-05 07:11:00,
2013-04-05 02:16:00,32.9,2.5,30.10,North,0,0.0,0.0,27,0.00,CLR,OVC,0.00,WeatherDisplay:10.37,2013-04-05 07:16:00,
2013-04-05 02:21:00,32.7,-3.0,30.10,North,0,0.0,0.0,21,0.00,CLR,OVC,0.00,WeatherDisplay:10.37,2013-04-05 07:21:00,
2013-04-05 02:26:00,32.5,-8.8,30.10,North,0,0.0,0.0,16,0.00,CLR,OVC,0.00,WeatherDisplay:10.37,2013-04-05 07:26:00,
2013-04-05 02:31:00,32.4,-6.5,30.10,North,0,0.0,0.0,18,0.00,CLR,OVC,0.00,WeatherDisplay:10.37,2013-04-05 07:31:00,
2013-04-05 02:37:00,32.4,-4.3,30.10,North,0,0.0,0.0,20,0.00,CLR,OVC,0.00,WeatherDisplay:10.37,2013-04-05 07:37:00,
2013-04-05 02:42:00,32.4,-4.3,30.10,North,0,0.0,0.0,20,0.00,CLR,OVC,0.00,WeatherDisplay:10.37,2013-04-05 07:42:00,
2013-04-05 02:47:00,32.2,-3.5,30.10,North,0,0.0,0.0,21,0.00,CLR,OVC,0.00,WeatherDisplay:10.37,2013-04-05 07:47:00,
2013-04-05 02:52:00,32.0,-4.6,30.11,North,0,0.0,0.0,20,0.00,CLR,OVC,0.00,WeatherDisplay:10.37,2013-04-05 07:52:00,
2013-04-05 02:57:00,32.0,-6.8,30.10,North,0,0.0,0.0,18,0.00,CLR,OVC,0.00,WeatherDisplay:10.37,2013-04-05 07:57:00,
2013-04-05 03:02:00,31.8,-18.7,30.11,North,0,0.0,0.0,10,0.00,CLR,OVC,0.00,WeatherDisplay:10.37,2013-04-05 08:02:00,
2013-04-05 03:07:00,31.8,-25.5,30.11,North,0,0.0,0.0,7,0.00,CLR,OVC,0.00,WeatherDisplay:10.37,2013-04-05 08:07:00,
2013-04-05 03:12:00,31.8,-20.8,30.11,North,0,0.0,0.0,9,0.00,CLR,OVC,0.00,WeatherDisplay:10.37,2013-04-05 08:12:00,
2013-04-05 03:17:00,31.6,-18.9,30.11,North,0,0.0,0.0,10,0.00,CLR,OVC,0.00,WeatherDisplay:10.37,2013-04-05 08:17:00,
2013-04-05 03:22:00,31.6,-28.5,30.11,North,0,0.0,0.0,6,0.00,CLR,OVC,0.00,WeatherDisplay:10.37,2013-04-05 08:22:00,
2013-04-05 03:27:00,32.0,-22.9,30.11,North,0,0.0,0.0,8,0.00,CLR,OVC,0.00,WeatherDisplay:10.37,2013-04-05 08:27:00,
2013-04-05 03:32:00,32.2,-16.6,30.11,North,0,0.0,0.0,11,0.00,CLR,OVC,0.00,WeatherDisplay:10.37,2013-04-05 08:32:00,
2013-04-05 03:37:00,32.0,-11.9,30.11,North,0,0.0,0.0,14,0.00,CLR,OVC,0.00,WeatherDisplay:10.37,2013-04-05 08:37:00,
2013-04-05 03:42:00,32.0,-9.2,30.11,North,0,0.0,0.0,16,0.00,CLR,OVC,0.00,WeatherDisplay:10.37,2013-04-05 08:42:00,
2013-04-05 03:47:00,32.0,-8.0,30.12,North,0,0.0,0.0,17,0.00,CLR,OVC,0.00,WeatherDisplay:10.37,2013-04-05 08:47:00,
2013-04-05 03:52:00,31.8,-4.8,30.12,North,0,0.0,0.0,20,0.00,CLR,OVC,0.00,WeatherDisplay:10.37,2013-04-05 08:52:00,
2013-04-05 03:57:00,31.6,-4.9,30.12,North,0,0.0,0.0,20,0.00,CLR,OVC,0.00,WeatherDisplay:10.37,2013-04-05 08:57:00,
2013-04-05 04:02:00,31.8,-4.8,30.12,North,0,0.0,0.0,20,0.00,CLR,OVC,0.00,WeatherDisplay:10.37,2013-04-05 09:02:00,
2013-04-05 04:08:00,32.0,-1.7,30.12,North,0,0.0,0.0,23,0.00,CLR,OVC,0.00,WeatherDisplay:10.37,2013-04-05 09:08:00,
2013-04-05 04:13:00,32.0,0.9,30.12,North,0,0.0,0.0,26,0.00,CLR,OVC,0.00,WeatherDisplay:10.37,2013-04-05 09:13:00,
2013-04-05 04:18:00,32.0,1.7,30.12,North,0,0.0,0.0,27,0.00,CLR,OVC,0.00,WeatherDisplay:10.37,2013-04-05 09:18:00,
2013-04-05 04:23:00,32.0,4.0,30.13,North,0,0.0,0.0,30,0.00,CLR,OVC,0.00,WeatherDisplay:10.37,2013-04-05 09:23:00,
2013-04-05 04:28:00,31.8,4.6,30.13,North,0,0.0,0.0,31,0.00,CLR,OVC,0.00,WeatherDisplay:10.37,2013-04-05 09:28:00,
2013-04-05 04:33:00,31.6,4.4,30.13,North,0,0.0,0.0,31,0.00,CLR,OVC,0.00,WeatherDisplay:10.37,2013-04-05 09:33:00,
2013-04-05 04:38:00,31.6,5.1,30.13,North,0,0.0,0.0,32,0.00,CLR,OVC,0.00,WeatherDisplay:10.37,2013-04-05 09:38:00,
2013-04-05 04:43:00,31.6,5.8,30.13,North,0,0.0,0.0,33,0.00,CLR,OVC,0.00,WeatherDisplay:10.37,2013-04-05 09:43:00,
2013-04-05 04:48:00,31.5,5.6,30.13,North,0,0.0,0.0,33,0.00,CLR,OVC,0.00,WeatherDisplay:10.37,2013-04-05 09:48:00,
2013-04-05 04:53:00,31.3,4.8,30.13,North,0,0.0,0.0,32,0.00,CLR,OVC,0.00,WeatherDisplay:10.37,2013-04-05 09:53:00,
2013-04-05 04:58:00,31.1,3.9,30.13,North,0,0.0,0.0,31,0.00,CLR,OVC,0.00,WeatherDisplay:10.37,2013-04-05 09:58:00,
2013-04-05 05:03:00,30.9,3.8,30.13,North,0,0.0,0.0,31,0.00,CLR,OVC,0.00,WeatherDisplay:10.37,2013-04-05 10:03:00,
2013-04-05 05:08:00,30.9,3.8,30.14,North,0,0.0,0.0,31,0.00,CLR,OVC,0.00,WeatherDisplay:10.37,2013-04-05 10:08:00,
2013-04-05 05:13:00,30.9,5.1,30.14,North,0,0.0,0.0,33,0.00,CLR,OVC,0.00,WeatherDisplay:10.37,2013-04-05 10:13:00,
2013-04-05 05:18:00,30.9,6.4,30.14,North,0,0.0,0.0,35,0.00,CLR,OVC,0.00,WeatherDisplay:10.37,2013-04-05 10:18:00,
2013-04-05 05:23:00,30.9,6.4,30.14,North,0,0.0,0.0,35,0.00,CLR,OVC,0.00,WeatherDisplay:10.37,2013-04-05 10:23:00,
2013-04-05 05:28:00,30.9,6.4,30.15,North,0,0.0,0.0,35,0.00,CLR,OVC,0.00,WeatherDisplay:10.37,2013-04-05 10:28:00,
2013-04-05 05:33:00,30.9,5.8,30.15,North,0,0.0,0.0,34,0.00,CLR,OVC,0.00,WeatherDisplay:10.37,2013-04-05 10:33:00,
2013-04-05 05:38:00,31.1,5.3,30.15,North,0,0.0,0.0,33,0.00,CLR,OVC,0.00,WeatherDisplay:10.37,2013-04-05 10:38:00,
2013-04-05 05:43:00,31.1,2.5,30.15,North,0,0.0,0.0,29,0.00,CLR,OVC,0.00,WeatherDisplay:10.37,2013-04-05 10:43:00,
2013-04-05 05:48:00,31.1,1.7,30.15,North,0,0.0,0.0,28,0.00,CLR,OVC,0.00,WeatherDisplay:10.37,2013-04-05 10:48:00,
2013-04-05 05:53:00,31.1,2.5,30.15,North,0,0.0,0.0,29,0.00,CLR,OVC,0.00,WeatherDisplay:10.37,2013-04-05 10:53:00,
2013-04-05 05:58:00,31.1,3.2,30.15,North,0,0.0,0.0,30,0.00,CLR,OVC,0.00,WeatherDisplay:10.37,2013-04-05 10:58:00,
2013-04-05 06:03:00,31.1,3.9,30.15,North,0,0.0,0.0,31,0.00,CLR,OVC,0.00,WeatherDisplay:10.37,2013-04-05 11:03:00,
2013-04-05 06:09:00,31.1,3.9,30.15,North,0,0.0,0.0,31,0.00,CLR,OVC,0.00,WeatherDisplay:10.37,2013-04-05 11:09:00,
2013-04-05 06:14:00,31.1,3.9,30.15,North,0,0.0,0.0,31,0.00,CLR,OVC,0.00,WeatherDisplay:10.37,2013-04-05 11:14:00,
2013-04-05 06:19:00,30.9,3.8,30.16,North,0,0.0,0.0,31,0.00,CLR,OVC,0.00,WeatherDisplay:10.37,2013-04-05 11:19:00,
2013-04-05 06:24:00,30.9,3.8,30.16,North,0,0.0,0.0,31,0.00,CLR,OVC,0.00,WeatherDisplay:10.37,2013-04-05 11:24:00,
2013-04-05 06:29:00,30.7,1.4,30.16,North,0,0.0,0.0,28,0.00,CLR,OVC,0.00,WeatherDisplay:10.37,2013-04-05 11:29:00,
2013-04-05 06:34:00,30.7,1.4,30.16,North,0,0.0,0.0,28,0.00,CLR,OVC,0.00,WeatherDisplay:10.37,2013-04-05 11:34:00,
2013-04-05 06:39:00,30.7,1.4,30.16,North,0,0.0,0.0,28,0.00,CLR,OVC,0.00,WeatherDisplay:10.37,2013-04-05 11:39:00,
2013-04-05 06:44:00,30.9,2.3,30.16,North,0,0.0,0.0,29,0.00,CLR,OVC,0.00,WeatherDisplay:10.37,2013-04-05 11:44:00,
2013-04-05 06:50:00,30.9,1.6,30.16,North,0,0.0,0.0,28,0.00,CLR,OVC,0.00,WeatherDisplay:10.37,2013-04-05 11:50:00,
2013-04-05 06:55:00,31.1,1.7,30.16,North,0,0.0,0.0,28,0.00,CLR,OVC,0.00,WeatherDisplay:10.37,2013-04-05 11:55:00,
2013-04-05 07:00:00,31.1,1.0,30.16,North,0,0.0,0.0,27,0.00,CLR,OVC,0.00,WeatherDisplay:10.37,2013-04-05 12:00:00,
2013-04-05 07:05:00,31.3,1.1,30.16,North,0,0.0,0.0,27,0.00,CLR,OVC,0.00,WeatherDisplay:10.37,2013-04-05 12:05:00,
2013-04-05 07:10:00,31.3,0.3,30.16,North,0,0.0,0.0,26,0.00,CLR,OVC,0.00,WeatherDisplay:10.37,2013-04-05 12:10:00,
2013-04-05 07:15:00,31.5,2.8,30.16,North,0,0.0,0.0,29,0.00,CLR,OVC,0.00,WeatherDisplay:10.37,2013-04-05 12:15:00,
2013-04-05 07:20:00,32.0,6.1,30.17,North,0,0.0,0.0,33,0.00,CLR,OVC,0.00,WeatherDisplay:10.37,2013-04-05 12:20:00,
2013-04-05 07:25:00,32.2,8.2,30.17,North,0,0.0,0.0,36,0.00,CLR,OVC,0.00,WeatherDisplay:10.37,2013-04-05 12:25:00,
2013-04-05 07:30:00,32.4,10.7,30.17,North,0,0.0,0.0,40,0.00,CLR,OVC,0.00,WeatherDisplay:10.37,2013-04-05 12:30:00,
2013-04-05 07:35:00,32.4,11.2,30.17,North,0,0.0,0.0,41,0.00,CLR,OVC,0.00,WeatherDisplay:10.37,2013-04-05 12:35:00,
2013-04-05 07:40:00,32.5,10.3,30.17,North,0,0.0,0.0,39,0.00,CLR,OVC,0.00,WeatherDisplay:10.37,2013-04-05 12:40:00,
2013-04-05 07:45:00,32.5,9.1,30.17,North,0,0.0,0.0,37,0.00,CLR,OVC,0.00,WeatherDisplay:10.37,2013-04-05 12:45:00,
2013-04-05 07:50:00,32.7,9.3,30.18,North,0,0.0,0.0,37,0.00,CLR,OVC,0.00,WeatherDisplay:10.37,2013-04-05 12:50:00,
2013-04-05 07:55:00,32.7,10.4,30.18,North,0,0.0,0.0,39,0.00,CLR,OVC,0.00,WeatherDisplay:10.37,2013-04-05 12:55:00,
2013-04-05 08:00:00,32.7,11.0,30.18,North,0,0.0,0.0,40,0.00,CLR,OVC,0.00,WeatherDisplay:10.37,2013-04-05 13:00:00,
2013-04-05 08:05:00,33.1,10.8,30.18,North,0,0.0,0.0,39,0.00,CLR,OVC,0.00,WeatherDisplay:10.37,2013-04-05 13:05:00,
2013-04-05 08:10:00,33.3,13.1,30.18,North,0,0.0,0.0,43,0.00,CLR,OVC,0.00,WeatherDisplay:10.37,2013-04-05 13:10:00,
2013-04-05 08:15:00,33.4,14.8,30.18,North,0,0.0,0.0,46,0.00,CLR,OVC,0.00,WeatherDisplay:10.37,2013-04-05 13:15:00,
2013-04-05 08:20:00,33.6,15.0,30.18,North,0,0.0,0.0,46,0.00,CLR,OVC,0.00,WeatherDisplay:10.37,2013-04-05 13:20:00,
2013-04-05 08:25:00,33.8,16.6,30.18,North,0,0.0,0.0,49,0.00,CLR,OVC,0.00,WeatherDisplay:10.37,2013-04-05 13:25:00,
2013-04-05 08:30:00,34.0,17.3,30.19,North,0,0.0,0.0,50,0.00,CLR,OVC,0.00,WeatherDisplay:10.37,2013-04-05 13:30:00,
2013-04-05 08:35:00,34.2,17.0,30.19,North,0,0.0,0.0,49,0.00,CLR,OVC,0.00,WeatherDisplay:10.37,2013-04-05 13:35:00,
2013-04-05 08:40:00,34.5,18.7,30.19,North,0,0.0,0.0,52,0.00,CLR,OVC,0.00,WeatherDisplay:10.37,2013-04-05 13:40:00,
2013-04-05 08:45:00,34.9,19.0,30.19,North,0,0.0,0.0,52,0.00,CLR,OVC,0.00,WeatherDisplay:10.37,2013-04-05 13:45:00,
2013-04-05 08:50:00,34.9,19.5,30.19,North,0,0.0,0.0,53,0.00,CLR,OVC,0.00,WeatherDisplay:10.37,2013-04-05 13:50:00,
2013-04-05 08:55:00,35.2,20.7,30.19,North,0,0.0,0.0,55,0.00,CLR,OVC,0.00,WeatherDisplay:10.37,2013-04-05 13:55:00,
2013-04-05 09:00:00,35.6,21.4,30.19,North,0,0.0,0.0,56,0.00,CLR,OVC,0.00,WeatherDisplay:10.37,2013-04-05 14:00:00,
2013-04-05 09:05:00,36.0,22.2,30.18,North,0,0.0,0.0,57,0.00,CLR,OVC,0.00,WeatherDisplay:10.37,2013-04-05 14:05:00,
2013-04-05 09:10:00,36.1,21.9,30.19,North,0,0.0,0.0,56,0.00,CLR,OVC,0.00,WeatherDisplay:10.37,2013-04-05 14:10:00,
2013-04-05 09:15:00,36.7,22.4,30.19,North,0,0.0,0.0,56,0.00,CLR,OVC,0.00,WeatherDisplay:10.37,2013-04-05 14:15:00,
2013-04-05 09:20:00,37.4,23.5,30.19,North,0,0.0,0.0,57,0.00,CLR,OVC,0.00,WeatherDisplay:10.37,2013-04-05 14:20:00,
2013-04-05 09:25:00,37.8,23.5,30.19,North,0,0.0,0.0,56,0.00,CLR,OVC,0.00,WeatherDisplay:10.37,2013-04-05 14:25:00,
2013-04-05 09:33:00,38.3,24.8,30.18,North,0,0.0,0.0,58,0.00,CLR,OVC,0.00,WeatherDisplay:10.37,2013-04-05 14:33:00,
2013-04-05 09:38:00,38.7,25.1,30.18,North,0,0.0,0.0,58,0.00,CLR,OVC,0.00,WeatherDisplay:10.37,2013-04-05 14:38:00,
2013-04-05 09:43:00,39.2,25.6,30.18,North,0,0.0,0.0,58,0.00,CLR,OVC,0.00,WeatherDisplay:10.37,2013-04-05 14:43:00,
2013-04-05 09:48:00,39.7,27.0,30.18,North,0,0.0,0.0,60,0.00,CLR,OVC,0.00,WeatherDisplay:10.37,2013-04-05 14:48:00,
2013-04-05 09:53:00,40.3,27.5,30.18,North,0,0.0,0.0,60,0.00,CLR,OVC,0.00,WeatherDisplay:10.37,2013-04-05 14:53:00,
2013-04-05 09:58:00,40.6,27.4,30.18,North,0,0.0,0.0,59,0.00,CLR,OVC,0.00,WeatherDisplay:10.37,2013-04-05 14:58:00,
2013-04-05 10:03:00,41.4,28.5,30.18,North,0,0.0,0.0,60,0.00,CLR,OVC,0.00,WeatherDisplay:10.37,2013-04-05 15:03:00,
2013-04-05 10:08:00,41.4,28.5,30.18,North,0,0.0,0.0,60,0.00,CLR,OVC,0.00,WeatherDisplay:10.37,2013-04-05 15:08:00,
2013-04-05 10:13:00,42.1,29.2,30.18,North,0,0.0,0.0,60,0.00,CLR,OVC,0.00,WeatherDisplay:10.37,2013-04-05 15:13:00,
2013-04-05 10:18:00,42.3,29.4,30.18,North,0,0.0,0.0,60,0.00,CLR,OVC,0.00,WeatherDisplay:10.37,2013-04-05 15:18:00,
2013-04-05 10:23:00,42.3,29.4,30.18,North,0,0.0,0.0,60,0.00,CLR,OVC,0.00,WeatherDisplay:10.37,2013-04-05 15:23:00,
2013-04-05 10:28:00,42.3,28.9,30.18,North,0,0.0,0.0,59,0.00,CLR,OVC,0.00,WeatherDisplay:10.37,2013-04-05 15:28:00,
2013-04-05 10:33:00,43.0,29.6,30.17,North,0,0.0,0.0,59,0.00,CLR,OVC,0.00,WeatherDisplay:10.37,2013-04-05 15:33:00,
2013-04-05 10:38:00,43.2,29.4,30.18,North,0,0.0,0.0,58,0.00,CLR,OVC,0.00,WeatherDisplay:10.37,2013-04-05 15:38:00,
2013-04-05 10:43:00,43.2,29.8,30.17,North,0,0.0,0.0,59,0.00,CLR,OVC,0.00,WeatherDisplay:10.37,2013-04-05 15:43:00,
2013-04-05 10:48:00,43.5,29.7,30.17,North,0,0.0,0.0,58,0.00,CLR,OVC,0.00,WeatherDisplay:10.37,2013-04-05 15:48:00,
2013-04-05 10:53:00,43.3,29.1,30.17,North,0,0.0,0.0,57,0.00,CLR,OVC,0.00,WeatherDisplay:10.37,2013-04-05 15:53:00,
2013-04-05 10:58:00,43.5,28.8,30.17,North,0,0.0,0.0,56,0.00,CLR,OVC,0.00,WeatherDisplay:10.37,2013-04-05 15:58:00,
2013-04-05 11:03:00,43.7,29.0,30.17,North,0,0.0,0.0,56,0.00,CLR,OVC,0.00,WeatherDisplay:10.37,2013-04-05 16:03:00,
2013-04-05 11:08:00,43.9,29.2,30.16,North,0,0.0,0.0,56,0.00,CLR,OVC,0.00,WeatherDisplay:10.37,2013-04-05 16:08:00,
2013-04-05 11:13:00,44.2,28.2,30.16,North,0,0.0,0.0,53,0.00,CLR,OVC,0.00,WeatherDisplay:10.37,2013-04-05 16:13:00,
2013-04-05 11:18:00,44.2,30.0,30.16,North,0,0.0,0.0,57,0.00,CLR,OVC,0.00,WeatherDisplay:10.37,2013-04-05 16:18:00,
2013-04-05 11:23:00,45.0,30.6,30.16,North,0,0.0,0.0,57,0.00,CLR,OVC,0.00,WeatherDisplay:10.37,2013-04-05 16:23:00,
2013-04-05 11:28:00,45.0,30.2,30.17,North,0,0.0,0.0,56,0.00,CLR,OVC,0.00,WeatherDisplay:10.37,2013-04-05 16:28:00,
2013-04-05 11:33:00,45.1,29.5,30.17,North,0,0.0,0.0,54,0.00,CLR,OVC,0.00,WeatherDisplay:10.37,2013-04-05 16:33:00,
2013-04-05 11:38:00,45.7,30.9,30.17,North,0,0.0,0.0,56,0.00,CLR,OVC,0.00,WeatherDisplay:10.37,2013-04-05 16:38:00,
2013-04-05 11:43:00,45.7,30.0,30.17,North,0,0.0,0.0,54,0.00,CLR,OVC,0.00,WeatherDisplay:10.37,2013-04-05 16:43:00,
2013-04-05 11:48:00,46.0,29.4,30.16,North,0,0.0,0.0,52,0.00,CLR,OVC,0.00,WeatherDisplay:10.37,2013-04-05 16:48:00,
2013-04-05 11:53:00,46.4,31.1,30.16,North,0,0.0,0.0,55,0.00,CLR,OVC,0.00,WeatherDisplay:10.37,2013-04-05 16:53:00,
2013-04-05 11:58:00,46.4,30.2,30.16,North,0,0.0,0.0,53,0.00,CLR,OVC,0.00,WeatherDisplay:10.37,2013-04-05 16:58:00,
2013-04-05 12:04:00,46.6,29.9,30.16,North,0,0.0,0.0,52,0.00,CLR,OVC,0.00,WeatherDisplay:10.37,2013-04-05 17:04:00,
2013-04-05 12:09:00,46.9,29.7,30.16,North,0,0.0,0.0,51,0.00,CLR,OVC,0.00,WeatherDisplay:10.37,2013-04-05 17:09:00,
2013-04-05 12:14:00,46.8,29.1,30.15,North,0,0.0,0.0,50,0.00,CLR,OVC,0.00,WeatherDisplay:10.37,2013-04-05 17:14:00,
2013-04-05 12:20:00,47.1,29.4,30.16,North,0,0.0,0.0,50,0.00,CLR,OVC,0.00,WeatherDisplay:10.37,2013-04-05 17:20:00,
2013-04-05 12:25:00,46.6,28.4,30.15,North,0,0.0,0.0,49,0.00,CLR,OVC,0.00,WeatherDisplay:10.37,2013-04-05 17:25:00,
2013-04-05 12:30:00,46.0,27.9,30.16,North,0,0.0,0.0,49,0.00,CLR,OVC,0.00,WeatherDisplay:10.37,2013-04-05 17:30:00,
2013-04-05 12:35:00,46.0,29.4,30.15,North,0,0.0,0.0,52,0.00,CLR,OVC,0.00,WeatherDisplay:10.37,2013-04-05 17:35:00,
2013-04-05 12:40:00,46.0,28.9,30.15,North,0,0.0,0.0,51,0.00,CLR,OVC,0.00,WeatherDisplay:10.37,2013-04-05 17:40:00,
2013-04-05 12:45:00,46.0,29.8,30.15,North,0,0.0,0.0,53,0.00,CLR,OVC,0.00,WeatherDisplay:10.37,2013-04-05 17:45:00,
2013-04-05 12:50:00,46.0,28.9,30.16,North,0,0.0,0.0,51,0.00,CLR,OVC,0.00,WeatherDisplay:10.37,2013-04-05 17:50:00,
2013-04-05 12:55:00,45.9,28.7,30.16,North,0,0.0,0.0,51,0.00,CLR,OVC,0.00,WeatherDisplay:10.37,2013-04-05 17:55:00,
2013-04-05 13:00:00,46.0,29.4,30.16,North,0,0.0,0.0,52,0.00,CLR,OVC,0.00,WeatherDisplay:10.37,2013-04-05 18:00:00,
2013-04-05 13:05:00,46.2,29.1,30.16,North,0,0.0,0.0,51,0.00,CLR,OVC,0.00,WeatherDisplay:10.37,2013-04-05 18:05:00,
2013-04-05 13:10:00,46.2,27.6,30.15,North,0,0.0,0.0,48,0.00,CLR,OVC,0.00,WeatherDisplay:10.37,2013-04-05 18:10:00,
2013-04-05 13:15:00,45.9,29.7,30.15,North,0,0.0,0.0,53,0.00,CLR,OVC,0.00,WeatherDisplay:10.37,2013-04-05 18:15:00,
2013-04-05 13:21:00,45.7,29.0,30.15,North,0,0.0,0.0,52,0.00,CLR,OVC,0.00,WeatherDisplay:10.37,2013-04-05 18:21:00,
2013-04-05 13:26:00,45.5,28.9,30.14,North,0,0.0,0.0,52,0.00,CLR,OVC,0.00,WeatherDisplay:10.37,2013-04-05 18:26:00,
2013-04-05 13:32:00,45.0,27.9,30.14,North,0,0.0,0.0,51,0.00,CLR,OVC,0.00,WeatherDisplay:10.37,2013-04-05 18:32:00,
2013-04-05 13:37:00,45.0,28.4,30.13,North,0,0.0,0.0,52,0.00,CLR,OVC,0.00,WeatherDisplay:10.37,2013-04-05 18:37:00,
2013-04-05 13:42:00,45.1,29.0,30.13,North,0,0.0,0.0,53,0.00,CLR,OVC,0.00,WeatherDisplay:10.37,2013-04-05 18:42:00,
2013-04-05 13:47:00,45.3,30.1,30.13,North,0,0.0,0.0,55,0.00,CLR,OVC,0.00,WeatherDisplay:10.37,2013-04-05 18:47:00,
2013-04-05 13:52:00,45.1,29.0,30.13,North,0,0.0,0.0,53,0.00,CLR,OVC,0.00,WeatherDisplay:10.37,2013-04-05 18:52:00,
2013-04-05 13:57:00,45.1,29.0,30.13,North,0,0.0,0.0,53,0.00,CLR,OVC,0.00,WeatherDisplay:10.37,2013-04-05 18:57:00,
2013-04-05 14:02:00,45.1,29.9,30.12,North,0,0.0,0.0,55,0.00,CLR,OVC,0.00,WeatherDisplay:10.37,2013-04-05 19:02:00,
2013-04-05 14:07:00,45.1,29.9,30.12,North,0,0.0,0.0,55,0.00,CLR,OVC,0.00,WeatherDisplay:10.37,2013-04-05 19:07:00,
2013-04-05 14:12:00,45.1,29.9,30.12,North,0,0.0,0.0,55,0.00,CLR,OVC,0.00,WeatherDisplay:10.37,2013-04-05 19:12:00,
2013-04-05 14:17:00,45.3,30.5,30.12,North,0,0.0,0.0,56,0.00,CLR,OVC,0.00,WeatherDisplay:10.37,2013-04-05 19:17:00,
2013-04-05 14:22:00,45.5,30.3,30.11,North,0,0.0,0.0,55,0.00,CLR,OVC,0.00,WeatherDisplay:10.37,2013-04-05 19:22:00,
2013-04-05 14:27:00,45.3,30.1,30.11,North,0,0.0,0.0,55,0.00,CLR,OVC,0.00,WeatherDisplay:10.37,2013-04-05 19:27:00,
2013-04-05 14:32:00,45.1,29.5,30.11,North,0,0.0,0.0,54,0.00,CLR,OVC,0.00,WeatherDisplay:10.37,2013-04-05 19:32:00,
2013-04-05 14:37:00,45.0,30.6,30.10,North,0,0.0,0.0,57,0.00,CLR,OVC,0.00,WeatherDisplay:10.37,2013-04-05 19:37:00,
2013-04-05 14:42:00,45.0,30.2,30.10,North,0,0.0,0.0,56,0.00,CLR,OVC,0.00,WeatherDisplay:10.37,2013-04-05 19:42:00,
2013-04-05 14:47:00,44.8,30.0,30.10,North,0,0.0,0.0,56,0.00,CLR,OVC,0.00,WeatherDisplay:10.37,2013-04-05 19:47:00,
2013-04-05 14:52:00,45.0,30.6,30.10,North,0,0.0,0.0,57,0.00,CLR,OVC,0.00,WeatherDisplay:10.37,2013-04-05 19:52:00,
2013-04-05 14:57:00,45.0,30.6,30.10,North,0,0.0,0.0,57,0.00,CLR,OVC,0.00,WeatherDisplay:10.37,2013-04-05 19:57:00,
2013-04-05 15:03:00,45.0,30.2,30.09,North,0,0.0,0.0,56,0.00,CLR,OVC,0.00,WeatherDisplay:10.37,2013-04-05 20:03:00,
2013-04-05 15:07:00,45.0,30.2,30.09,North,0,0.0,0.0,56,0.00,CLR,OVC,0.00,WeatherDisplay:10.37,2013-04-05 20:07:00,
2013-04-05 15:12:00,45.0,30.2,30.09,North,0,0.0,0.0,56,0.00,CLR,OVC,0.00,WeatherDisplay:10.37,2013-04-05 20:12:00,
2013-04-05 15:18:00,45.3,31.0,30.09,North,0,0.0,0.0,57,0.00,CLR,OVC,0.00,WeatherDisplay:10.37,2013-04-05 20:18:00,
2013-04-05 15:23:00,45.5,31.1,30.09,North,0,0.0,0.0,57,0.00,CLR,OVC,0.00,WeatherDisplay:10.37,2013-04-05 20:23:00,
2013-04-05 15:28:00,45.3,31.0,30.09,North,0,0.0,0.0,57,0.00,CLR,OVC,0.00,WeatherDisplay:10.37,2013-04-05 20:28:00,
2013-04-05 15:33:00,45.5,30.7,30.09,North,0,0.0,0.0,56,0.00,CLR,OVC,0.00,WeatherDisplay:10.37,2013-04-05 20:33:00,
2013-04-05 15:38:00,45.5,31.1,30.09,North,0,0.0,0.0,57,0.00,CLR,OVC,0.00,WeatherDisplay:10.37,2013-04-05 20:38:00,
2013-04-05 15:43:00,45.7,31.3,30.09,North,0,0.0,0.0,57,0.00,CLR,OVC,0.00,WeatherDisplay:10.37,2013-04-05 20:43:00,
2013-04-05 15:48:00,45.5,31.6,30.09,North,0,0.0,0.0,58,0.00,CLR,OVC,0.00,WeatherDisplay:10.37,2013-04-05 20:48:00,
2013-04-05 15:53:00,45.5,31.6,30.09,North,0,0.0,0.0,58,0.00,CLR,OVC,0.00,WeatherDisplay:10.37,2013-04-05 20:53:00,
2013-04-05 15:58:00,45.5,31.6,30.09,North,0,0.0,0.0,58,0.00,CLR,OVC,0.00,WeatherDisplay:10.37,2013-04-05 20:58:00,
2013-04-05 16:03:00,45.7,31.7,30.08,North,0,0.0,0.0,58,0.00,CLR,OVC,0.00,WeatherDisplay:10.37,2013-04-05 21:03:00,
2013-04-05 16:08:00,45.9,31.9,30.08,North,0,0.0,0.0,58,0.00,CLR,OVC,0.00,WeatherDisplay:10.37,2013-04-05 21:08:00,
2013-04-05 16:13:00,46.0,32.1,30.07,North,0,0.0,0.0,58,0.00,CLR,OVC,0.00,WeatherDisplay:10.37,2013-04-05 21:13:00,
2013-04-05 16:18:00,46.6,32.1,30.07,North,0,0.0,0.0,57,0.00,CLR,OVC,0.00,WeatherDisplay:10.37,2013-04-05 21:18:00,
2013-04-05 16:23:00,46.8,32.3,30.07,North,0,0.0,0.0,57,0.00,CLR,OVC,0.00,WeatherDisplay:10.37,2013-04-05 21:23:00,
2013-04-05 16:28:00,46.9,32.0,30.06,North,0,0.0,0.0,56,0.00,CLR,OVC,0.00,WeatherDisplay:10.37,2013-04-05 21:28:00,
2013-04-05 16:33:00,47.1,32.7,30.06,North,0,0.0,0.0,57,0.00,CLR,OVC,0.00,WeatherDisplay:10.37,2013-04-05 21:33:00,
2013-04-05 16:39:00,47.1,32.7,30.05,North,0,0.0,0.0,57,0.00,CLR,OVC,0.00,WeatherDisplay:10.37,2013-04-05 21:39:00,
2013-04-05 16:44:00,46.8,31.9,30.05,North,0,0.0,0.0,56,0.00,CLR,OVC,0.00,WeatherDisplay:10.37,2013-04-05 21:44:00,
2013-04-05 16:50:00,46.8,32.3,30.05,North,0,0.0,0.0,57,0.00,CLR,OVC,0.00,WeatherDisplay:10.37,2013-04-05 21:50:00,
2013-04-05 16:55:00,46.8,31.9,30.05,North,0,0.0,0.0,56,0.00,CLR,OVC,0.00,WeatherDisplay:10.37,2013-04-05 21:55:00,
2013-04-05 17:00:00,46.9,32.0,30.05,North,0,0.0,0.0,56,0.00,CLR,OVC,0.00,WeatherDisplay:10.37,2013-04-05 22:00:00,
2013-04-05 17:05:00,46.8,31.9,30.05,North,0,0.0,0.0,56,0.00,CLR,OVC,0.00,WeatherDisplay:10.37,2013-04-05 22:05:00,
2013-04-05 17:10:00,46.6,31.7,30.04,North,0,0.0,0.0,56,0.00,CLR,OVC,0.00,WeatherDisplay:10.37,2013-04-05 22:10:00,
2013-04-05 17:15:00,46.2,31.4,30.04,North,0,0.0,0.0,56,0.00,CLR,OVC,0.00,WeatherDisplay:10.37,2013-04-05 22:15:00,
2013-04-05 17:20:00,46.2,31.8,30.04,North,0,0.0,0.0,57,0.00,CLR,OVC,0.00,WeatherDisplay:10.37,2013-04-05 22:20:00,
2013-04-05 17:25:00,46.0,31.6,30.04,North,0,0.0,0.0,57,0.00,CLR,OVC,0.00,WeatherDisplay:10.37,2013-04-05 22:25:00,
2013-04-05 17:30:00,45.9,31.9,30.04,North,0,0.0,0.0,58,0.00,CLR,OVC,0.00,WeatherDisplay:10.37,2013-04-05 22:30:00,
2013-04-05 17:35:00,46.0,32.1,30.04,North,0,0.0,0.0,58,0.00,CLR,OVC,0.00,WeatherDisplay:10.37,2013-04-05 22:35:00,
2013-04-05 17:40:00,46.0,32.1,30.04,North,0,0.0,0.0,58,0.00,CLR,OVC,0.00,WeatherDisplay:10.37,2013-04-05 22:40:00,
2013-04-05 17:45:00,46.0,32.1,30.04,North,0,0.0,0.0,58,0.00,CLR,OVC,0.00,WeatherDisplay:10.37,2013-04-05 22:45:00,
2013-04-05 17:50:00,46.0,32.1,30.04,North,0,0.0,0.0,58,0.00,CLR,OVC,0.00,WeatherDisplay:10.37,2013-04-05 22:50:00,
2013-04-05 17:55:00,45.9,31.9,30.03,North,0,0.0,0.0,58,0.00,CLR,OVC,0.00,WeatherDisplay:10.37,2013-04-05 22:55:00,
2013-04-05 18:00:00,45.7,31.7,30.03,North,0,0.0,0.0,58,0.00,CLR,OVC,0.00,WeatherDisplay:10.37,2013-04-05 23:00:00,
2013-04-05 18:05:00,45.7,32.2,30.03,North,0,0.0,0.0,59,0.00,CLR,OVC,0.00,WeatherDisplay:10.37,2013-04-05 23:05:00,
2013-04-05 18:10:00,45.7,32.2,30.03,North,0,0.0,0.0,59,0.00,CLR,OVC,0.00,WeatherDisplay:10.37,2013-04-05 23:10:00,
2013-04-05 18:15:00,45.7,32.2,30.03,North,0,0.0,0.0,59,0.00,CLR,OVC,0.00,WeatherDisplay:10.37,2013-04-05 23:15:00,
2013-04-05 18:20:00,45.5,32.0,30.02,North,0,0.0,0.0,59,0.00,CLR,OVC,0.00,WeatherDisplay:10.37,2013-04-05 23:20:00,
2013-04-05 18:25:00,45.1,31.7,30.02,North,0,0.0,0.0,59,0.00,CLR,OVC,0.00,WeatherDisplay:10.37,2013-04-05 23:25:00,
2013-04-05 18:30:00,45.0,31.5,30.02,North,0,0.0,0.0,59,0.00,CLR,OVC,0.00,WeatherDisplay:10.37,2013-04-05 23:30:00,
2013-04-05 18:35:00,45.0,31.9,30.02,North,0,0.0,0.0,60,0.00,CLR,OVC,0.00,WeatherDisplay:10.37,2013-04-05 23:35:00,
2013-04-05 18:40:00,44.8,31.7,30.02,North,0,0.0,0.0,60,0.00,CLR,OVC,0.00,WeatherDisplay:10.37,2013-04-05 23:40:00,
2013-04-05 18:45:00,44.8,31.7,30.02,North,0,0.0,0.0,60,0.00,CLR,OVC,0.00,WeatherDisplay:10.37,2013-04-05 23:45:00,
2013-04-05 18:50:00,44.6,31.6,30.02,North,0,0.0,0.0,60,0.00,CLR,OVC,0.00,WeatherDisplay:10.37,2013-04-05 23:50:00,
2013-04-05 18:55:00,44.4,31.4,30.02,North,0,0.0,0.0,60,0.00,CLR,OVC,0.00,WeatherDisplay:10.37,2013-04-05 23:55:00,
2013-04-05 19:00:00,44.2,31.2,30.01,North,0,0.0,0.0,60,0.00,CLR,OVC,0.00,WeatherDisplay:10.37,2013-04-06 00:00:00,
2013-04-05 19:05:00,44.1,30.6,30.00,North,0,0.0,0.0,59,0.00,CLR,OVC,0.00,WeatherDisplay:10.37,2013-04-06 00:05:00,
2013-04-05 19:10:00,43.9,30.9,30.00,North,0,0.0,0.0,60,0.00,CLR,OVC,0.00,WeatherDisplay:10.37,2013-04-06 00:10:00,
2013-04-05 19:15:00,43.7,30.7,30.00,North,0,0.0,0.0,60,0.00,CLR,OVC,0.00,WeatherDisplay:10.37,2013-04-06 00:15:00,
2013-04-05 19:20:00,43.7,30.7,29.99,North,0,0.0,0.0,60,0.00,CLR,OVC,0.00,WeatherDisplay:10.37,2013-04-06 00:20:00,
2013-04-05 19:25:00,43.7,30.7,29.99,North,0,0.0,0.0,60,0.00,CLR,OVC,0.00,WeatherDisplay:10.37,2013-04-06 00:25:00,
2013-04-05 19:30:00,43.5,30.5,29.98,North,0,0.0,0.0,60,0.00,CLR,OVC,0.00,WeatherDisplay:10.37,2013-04-06 00:30:00,
2013-04-05 19:35:00,43.3,30.4,29.98,North,0,0.0,0.0,60,0.00,CLR,OVC,0.00,WeatherDisplay:10.37,2013-04-06 00:35:00,
2013-04-05 19:40:00,43.0,30.0,29.98,North,0,0.0,0.0,60,0.00,CLR,OVC,0.00,WeatherDisplay:10.37,2013-04-06 00:40:00,
2013-04-05 19:45:00,42.8,29.9,29.97,North,0,0.0,0.0,60,0.00,CLR,OVC,0.00,WeatherDisplay:10.37,2013-04-06 00:45:00,
2013-04-05 19:50:00,42.8,29.9,29.97,North,0,0.0,0.0,60,0.00,CLR,OVC,0.00,WeatherDisplay:10.37,2013-04-06 00:50:00,
2013-04-05 19:56:00,42.8,29.9,29.97,North,0,0.0,0.0,60,0.00,CLR,OVC,0.00,WeatherDisplay:10.37,2013-04-06 00:56:00,
2013-04-05 20:01:00,42.6,29.7,29.97,North,0,0.0,0.0,60,0.00,CLR,OVC,0.00,WeatherDisplay:10.37,2013-04-06 01:01:00,
2013-04-05 20:06:00,42.4,29.5,29.97,North,0,0.0,0.0,60,0.00,CLR,OVC,0.00,WeatherDisplay:10.37,2013-04-06 01:06:00,
2013-04-05 20:11:00,42.4,29.1,29.97,North,0,0.0,0.0,59,0.00,CLR,OVC,0.00,WeatherDisplay:10.37,2013-04-06 01:11:00,
2013-04-05 20:16:00,42.1,29.2,29.97,North,0,0.0,0.0,60,0.00,CLR,OVC,0.00,WeatherDisplay:10.37,2013-04-06 01:16:00,
2013-04-05 20:21:00,41.9,29.0,29.97,North,0,0.0,0.0,60,0.00,CLR,OVC,0.00,WeatherDisplay:10.37,2013-04-06 01:21:00,
2013-04-05 20:26:00,41.9,28.6,29.96,North,0,0.0,0.0,59,0.00,CLR,OVC,0.00,WeatherDisplay:10.37,2013-04-06 01:26:00,
2013-04-05 20:32:00,41.7,28.8,29.96,North,0,0.0,0.0,60,0.00,CLR,OVC,0.00,WeatherDisplay:10.37,2013-04-06 01:32:00,
2013-04-05 20:37:00,41.7,28.8,29.96,North,0,0.0,0.0,60,0.00,CLR,OVC,0.00,WeatherDisplay:10.37,2013-04-06 01:37:00,
2013-04-05 20:42:00,41.9,29.0,29.96,North,0,0.0,0.0,60,0.00,CLR,OVC,0.00,WeatherDisplay:10.37,2013-04-06 01:42:00,
2013-04-05 20:47:00,42.1,29.2,29.96,North,0,0.0,0.0,60,0.00,CLR,OVC,0.00,WeatherDisplay:10.37,2013-04-06 01:47:00,
2013-04-05 20:52:00,42.1,29.2,29.96,North,0,0.0,0.0,60,0.00,CLR,OVC,0.00,WeatherDisplay:10.37,2013-04-06 01:52:00,
2013-04-05 20:57:00,42.1,29.2,29.96,North,0,0.0,0.0,60,0.00,CLR,OVC,0.00,WeatherDisplay:10.37,2013-04-06 01:57:00,
2013-04-05 21:02:00,42.1,29.2,29.96,North,0,0.0,0.0,60,0.00,CLR,OVC,0.00,WeatherDisplay:10.37,2013-04-06 02:02:00,
2013-04-05 21:07:00,42.1,29.2,29.96,North,0,0.0,0.0,60,0.00,CLR,OVC,0.00,WeatherDisplay:10.37,2013-04-06 02:07:00,
2013-04-05 21:12:00,42.3,29.4,29.97,North,0,0.0,0.0,60,0.00,CLR,OVC,0.00,WeatherDisplay:10.37,2013-04-06 02:12:00,
2013-04-05 21:17:00,42.3,29.4,29.97,North,0,0.0,0.0,60,0.00,CLR,OVC,0.00,WeatherDisplay:10.37,2013-04-06 02:17:00,
2013-04-05 21:22:00,42.1,29.2,29.96,North,0,0.0,0.0,60,0.00,CLR,OVC,0.00,WeatherDisplay:10.37,2013-04-06 02:22:00,
2013-04-05 21:27:00,42.1,29.6,29.96,North,0,0.0,0.0,61,0.00,CLR,OVC,0.00,WeatherDisplay:10.37,2013-04-06 02:27:00,
2013-04-05 21:32:00,42.1,29.2,29.97,North,0,0.0,0.0,60,0.00,CLR,OVC,0.00,WeatherDisplay:10.37,2013-04-06 02:32:00,
2013-04-05 21:37:00,42.1,29.2,29.96,North,0,0.0,0.0,60,0.00,CLR,OVC,0.00,WeatherDisplay:10.37,2013-04-06 02:37:00,
2013-04-05 21:42:00,42.1,29.2,29.96,North,0,0.0,0.0,60,0.00,CLR,OVC,0.00,WeatherDisplay:10.37,2013-04-06 02:42:00,
2013-04-05 21:47:00,42.1,29.2,29.96,North,0,0.0,0.0,60,0.00,CLR,OVC,0.00,WeatherDisplay:10.37,2013-04-06 02:47:00,
2013-04-05 21:53:00,42.1,29.2,29.96,North,0,0.0,0.0,60,0.00,CLR,OVC,0.00,WeatherDisplay:10.37,2013-04-06 02:53:00,
2013-04-05 21:58:00,42.3,29.8,29.96,North,0,0.0,0.0,61,0.00,CLR,OVC,0.00,WeatherDisplay:10.37,2013-04-06 02:58:00,
2013-04-05 22:03:00,42.1,29.2,29.95,North,0,0.0,0.0,60,0.00,CLR,OVC,0.00,WeatherDisplay:10.37,2013-04-06 03:03:00,
2013-04-05 22:08:00,42.1,29.2,29.95,North,0,0.0,0.0,60,0.00,CLR,OVC,0.00,WeatherDisplay:10.37,2013-04-06 03:08:00,
2013-04-05 22:13:00,41.9,29.4,29.94,North,0,0.0,0.0,61,0.00,CLR,OVC,0.00,WeatherDisplay:10.37,2013-04-06 03:13:00,
2013-04-05 22:18:00,41.7,29.3,29.94,North,0,0.0,0.0,61,0.00,CLR,OVC,0.00,WeatherDisplay:10.37,2013-04-06 03:18:00,
2013-04-05 22:23:00,41.7,29.3,29.94,North,0,0.0,0.0,61,0.00,CLR,OVC,0.00,WeatherDisplay:10.37,2013-04-06 03:23:00,
2013-04-05 22:28:00,41.7,29.3,29.94,North,0,0.0,0.0,61,0.00,CLR,OVC,0.00,WeatherDisplay:10.37,2013-04-06 03:28:00,
2013-04-05 22:33:00,41.9,29.0,29.94,North,0,0.0,0.0,60,0.00,CLR,OVC,0.00,WeatherDisplay:10.37,2013-04-06 03:33:00,
2013-04-05 22:38:00,41.9,29.4,29.93,North,0,0.0,0.0,61,0.00,CLR,OVC,0.00,WeatherDisplay:10.37,2013-04-06 03:38:00,
2013-04-05 22:43:00,41.7,28.8,29.93,North,0,0.0,0.0,60,0.00,CLR,OVC,0.00,WeatherDisplay:10.37,2013-04-06 03:43:00,
2013-04-05 22:48:00,41.7,29.3,29.93,North,0,0.0,0.0,61,0.00,CLR,OVC,0.00,WeatherDisplay:10.37,2013-04-06 03:48:00,
2013-04-05 22:53:00,41.7,29.3,29.93,North,0,0.0,0.0,61,0.00,CLR,OVC,0.00,WeatherDisplay:10.37,2013-04-06 03:53:00,
2013-04-05 22:58:00,41.7,28.8,29.93,North,0,0.0,0.0,60,0.00,CLR,OVC,0.00,WeatherDisplay:10.37,2013-04-06 03:58:00,
2013-04-05 23:00:00,41.7,29.3,29.93,North,0,0.0,0.0,61,0.00,CLR,OVC,0.00,WeatherDisplay:10.37,2013-04-06 04:00:00,
2013-04-05 23:05:00,41.7,29.3,29.93,North,0,0.0,0.0,61,0.00,CLR,OVC,0.00,WeatherDisplay:10.37,2013-04-06 04:05:00,
2013-04-05 23:10:00,41.7,29.3,29.93,North,0,0.0,0.0,61,0.00,CLR,OVC,0.00,WeatherDisplay:10.37,2013-04-06 04:10:00,
2013-04-05 23:15:00,41.7,29.3,29.92,North,0,0.0,0.0,61,0.00,CLR,OVC,0.00,WeatherDisplay:10.37,2013-04-06 04:15:00,
2013-04-05 23:21:00,41.7,29.3,29.92,North,0,0.0,0.0,61,0.00,CLR,OVC,0.00,WeatherDisplay:10.37,2013-04-06 04:21:00,
2013-04-05 23:26:00,41.5,29.1,29.93,North,0,0.0,0.0,61,0.00,CLR,OVC,0.00,WeatherDisplay:10.37,2013-04-06 04:26:00,
2013-04-05 23:31:00,41.5,29.1,29.93,North,0,0.0,0.0,61,0.00,CLR,OVC,0.00,WeatherDisplay:10.37,2013-04-06 04:31:00,
2013-04-05 23:37:00,41.5,28.7,29.92,North,0,0.0,0.0,60,0.00,CLR,OVC,0.00,WeatherDisplay:10.37,2013-04-06 04:37:00,
2013-04-05 23:42:00,41.4,28.5,29.92,North,0,0.0,0.0,60,0.00,CLR,OVC,0.00,WeatherDisplay:10.37,2013-04-06 04:42:00,
2013-04-05 23:47:00,41.4,28.5,29.92,North,0,0.0,0.0,60,0.00,CLR,OVC,0.00,WeatherDisplay:10.37,2013-04-06 04:47:00,
2013-04-05 23:52:00,41.4,28.5,29.91,North,0,0.0,0.0,60,0.00,CLR,OVC,0.00,WeatherDisplay:10.37,2013-04-06 04:52:00,
2013-04-05 23:57:00,41.5,28.7,29.91,North,0,0.0,0.0,60,0.00,CLR,OVC,0.00,WeatherDisplay:10.37,2013-04-06 04:57:00,